Weather in Borok

Russia / Yaroslavl Oblast     58°03′48″N   38°14′09″E
temp.,
°C
wind,
m/s
gust,
m/s
humid.,
%
clouds,
%
prec.,
mm/h
press.,
hPa
HPBL,
m
16 january, sun
sun1600:00−5nw61488100 0.1 1001770
03:00−6nw51391100 0.1 1003508
06:00−8nw5129295 0.0 1004457
09:00−10wnw399575 0.1 1007253
12:00−9w2896100 0.0 1007248
15:00−6wsw499163 0.0 1005365
18:00−6wsw5139199 0.0 1003451
21:00−7sw5149497 0.0 1000480
17 january, mon
mon1700:00−7sw61692100 0.0 997528
03:00−5ssw61694100 0.1 992561
06:00−3sw61595100 0.9 987737
09:00−3ssw61395100 2.5 985639
12:00−3ssw51296100 1.1 983630
15:00−3ssw41095100 1.6 982591
18:00−3s41196100 0.4 981516
21:00−2ssw31097100 0.8 982412
18 january, tue
tue1800:00−4s2498100 0.3 98589
03:00−3n3897100 1.1 988374
06:00−7n71493100 0.9 993564
09:00−9n61591100 1.1 998580
12:00−8nnw61492100 0.0 1002633
15:00−8nnw61390100 0.1 1006640
18:00−9nnw5129298 0.0 1009497
21:00−11nw4119289 0.1 1012373
19 january, wed
wed1900:00−13nw399561 0.0 1014241
03:00−17nw259982 0.1 101586
06:00−18nw2510084 0.0 101671
09:00−22wnw1110088 0.1 10179
12:00−15w119771 0.0 101752
15:00−14ssw249743 0.0 101582
18:00−18ssw379863 0.0 101681
21:00−15s4119496 0.0 1014192
20 january, thu
thu2000:00−13s41389100 0.0 1013271
03:00−11s51588100 0.0 1011366
06:00−9s61694100 0.6 1010461
09:00−8s71694100 1.8 1009519
12:00−6s71794100 0.8 1008544
15:00−5s71694100 2.1 1008681
18:00−6s71593100 1.2 1008650
21:00−6s71593100 1.8 1008618